Dewpoint
-27 -29 -30 -31 -31 -31 -30 -28 -25 -21 -18 -16 -13 -10 -1 4 7 6 8 6 3 1 -10 -4 -6 -7 -6 -4 -4 -4 -1 -0 -1 -2 -4 -8 -8 -7 -7 -7 -7 -7 -5 -4 -3
-21 -22 -23 -25 -27 -29 -30 -30 -27 -22 -20 -19 -15 -13 -7 -2 3 7 4 4 4 1 -9 -7 -7 -7 -6 -5 -3 -2 -1 -1 -4 -7 -5 -7 -8 -7 -7 -8 -7 -6 -6 -3 -4
-23 -24 -23 -22 -23 -24 -26 -27 -28 -26 -19 -17 -15 -13 -9 2 6 2 2 3 2 -9 -5 -7 -8 -8 -7 -6 -3 -3 -0 -2 -6 -7 -9 -7 -8 -9 -8 -6 -8 -7 -6 -5 -4
-21 -20 -21 -23 -22 -22 -23 -24 -25 -24 -17 -10 -10 -12 -6 4 5 -4 -6 -7 -3 -3 -7 -7 -7 -7 -4 -3 -5 -2 -4 -4 -4 -7 -7 -6 -7 -6 -7 -7 -7 -7 -5 -5 -5
-12 -14 -16 -18 -20 -21 -21 -22 -23 -22 -16 -8 -4 -8 -3 5 4 3 1 3 2 -1 -7 -5 -5 -5 -2 -3 -4 -3 -4 -5 -6 -6 -6 -6 -5 -5 -6 -6 -6 -7 -7 -4 -4
4 4 3 1 -4 -9 -17 -20 -20 -21 -15 -7 -4 -3 3 4 -0 -1 1 2 -1 -5 -8 -5 -3 -3 -4 -4 -3 -5 -5 -5 -6 -6 -7 -6 -6 -6 -6 -5 -5 -5 -6 -6 -5
2 2 3 3 2 1 -0 -5 -18 -19 -18 -6 3 3 5 2 1 -3 -2 -1 -6 -9 -8 -3 -3 -4 -2 -2 -3 -5 -3 -3 -3 -4 -5 -2 1 1 -2 -2 -2 -2 -3 -5 -5
1 1 1 0 0 2 2 0 -2 -17 -18 -3 4 2 3 -1 -0 1 -2 -6 -8 -9 -6 -3 -2 -2 -2 -2 -2 -1 -1 1 -1 -2 -1 -0 3 -2 -1 -1 -2 -2 -3 -3 -3
-0 0 0 1 -2 -1 0 1 -0 -6 -14 2 4 4 3 0 1 0 -1 -6 -8 -6 -4 -3 -2 -1 -1 -0 1 0 3 2 1 -0 -1 -1 1 -3 -5 -5 -5 -5 -6 -6 -5
-0 -2 -3 -2 -5 -9 -5 -3 -4 -5 -4 5 4 3 2 0 -1 -1 -1 -5 -6 -4 -4 -3 -2 -0 1 2 5 3 3 2 1 -0 -1 -0 -1 -3 -6 -6 -7 -7 -6 -6 -6
-0 -1 -1 -2 -0 -7 -8 -3 -2 2 5 2 3 2 0 -3 -4 -4 -4 -5 -5 -4 -1 -2 0 2 1 0 1 1 1 0 -2 -3 -2 -2 -2 -2 -4 -5 -5 -5 -6 -5 -5
-2 -1 -1 -4 -4 -3 -4 2 0 3 2 -1 3 2 1 -2 -5 -6 -7 -6 -4 -1 -1 0 2 -1 -2 -2 -1 -0 1 0 -2 -5 -5 -4 -4 -4 -5 -2 -2 -3 -2 -2 -3
-2 -2 -1 -3 -5 0 -0 1 2 0 2 -1 -3 -3 -4 -3 -2 -3 -5 -4 -2 -0 -0 0 -2 -4 -3 -2 -1 -1 0 0 -0 -5 -6 -6 -1 -0 -2 -3 -6 -4 -3 -3 -2
-3 -4 -2 -1 -4 -2 -1 -1 0 0 3 -2 -5 -3 -4 -3 0 -1 -4 -3 -1 -1 -3 -3 -4 -5 -4 -3 -2 1 -6 -4 -4 -4 2 -5 1 0 -1 -1 -5 -6 -5 -6 -7
-5 -6 -6 -3 -1 1 0 -0 1 -1 3 -4 -4 -2 -2 -1 -2 -0 -3 -3 -3 -3 -2 -0 -4 -4 -3 -4 -5 -4 -8 -7 -6 -3 -1 -1 -0 0 -1 -0 -4 -7 -5 -6 -10
-5 -6 -7 -3 0 -0 1 -0 1 1 3 -3 -4 -5 -0 -0 -6 -7 -6 -7 -4 -1 -3 -2 -6 -6 -6 -9 -9 -8 -6 -5 -4 -1 1 -0 1 2 -0 -1 -6 -6 -9 -9 -10
-6 -9 -3 0 -0 0 -0 -1 1 3 -5 -5 -3 -5 -2 -1 -2 -6 -3 -3 3 4 4 0 -1 -7 -8 -5 -9 -8 -1 2 5 4 2 -0 1 1 -2 -3 -3 -6 -10 -13 -11
-9 -5 -1 -0 -0 -0 -0 1 2 0 2 1 0 -5 -3 -2 2 -3 -1 0 -1 1 3 2 2 -5 -7 -5 -3 -4 -0 2 4 5 5 -2 -1 -0 -5 -5 -11 -13 -11 -11 -11
-9 -1 -1 -1 -1 -1 -1 1 2 1 -2 0 -1 0 1 3 3 5 4 4 3 -0 3 2 -2 -9 -9 -9 -8 -3 -2 -4 -0 0 0 -0 -2 -7 -8 -7 -8 -5 -7 -13 -7
-2 -2 -0 -0 -2 0 0 -0 -1 -5 -5 -3 1 1 2 2 3 4 2 0 1 -0 -0 2 2 -5 -9 -10 -9 -7 -6 -1 -1 1 1 -1 -1 -1 -8 -8 -7 -5 -7 -11 -6
-2 -2 -0 -1 -1 0 1 1 1 -5 -4 -2 0 1 1 3 2 3 1 -1 -1 -0 -1 0 1 -2 -5 -4 -3 -5 -2 -2 1 2 1 2 1 -4 -4 -6 -7 -7 -9 -8 -5
-2 -2 -4 -2 -1 0 0 -0 -3 -4 -3 -1 -1 -0 2 3 1 1 1 1 -0 -0 1 -1 -0 3 -0 -6 -7 -7 -3 -1 2 1 -0 -1 0 -4 -5 -6 -7 -8 -10 -6 -5
-2 -2 -4 -1 -0 0 -0 -2 -1 -2 -1 1 1 -0 -0 2 2 -0 1 1 0 1 2 -2 1 1 1 -1 -4 -5 -6 -2 -0 0 1 1 1 -7 -5 -6 -8 -8 -6 -5 -4
-1 -2 -3 -1 -1 0 0 0 1 -3 -1 -2 -1 -1 -1 -1 -1 1 1 1 1 0 -1 -2 -1 0 2 1 -0 -2 -2 -4 -1 2 -2 -1 -2 -9 -9 -6 -5 -6 -6 -4 -4
-2 -2 -2 -1 -2 -1 -1 -1 -0 -1 -1 -1 -1 -0 1 -1 2 1 1 1 0 -0 -0 -2 -1 -2 -1 -2 -2 -1 -1 -1 -3 -1 -0 -2 -1 -1 -3 -4 -8 -6 -4 -4 -4
-2 -2 -2 -3 -2 -1 -1 0 1 1 0 -0 0 1 1 1 1 0 -0 -1 -1 -2 -0 -2 -0 -2 -3 -3 -2 -1 -2 -2 -1 -2 -2 -2 -1 -5 -9 -11 -6 -4 -4 -4 -5
-3 -3 -3 -4 -1 -1 -1 -1 -1 -1 1 0 0 1 1 0 -2 -2 -1 -1 -2 -3 -3 -3 -2 0 -2 -2 -4 -2 -3 -3 -2 -2 -1 1 -2 -7 -9 -12 -5 -5 -5 -5 -5
Wind_Speed
23 23 23 22 22 22 22 21 20 20 19 19 19 19 20 20 22 22 20 19 17 13 10 6 5 4 5 6 8 2 2 4 6 7 5 6 1 4 1 1 2 4 5 11 19
21 21 21 22 21 21 21 21 21 21 21 20 19 18 18 19 23 27 23 23 20 17 10 7 7 8 8 9 6 5 4 7 6 6 6 7 4 3 1 7 6 6 5 14 16
25 23 22 23 23 22 22 22 21 21 19 19 20 18 15 13 18 6 4 12 15 11 10 8 8 10 13 10 9 7 4 8 5 8 8 8 1 4 3 6 11 4 20 18 16
27 29 29 28 28 26 24 23 23 22 20 18 18 17 14 5 5 3 2 4 6 7 6 7 9 11 6 8 16 7 12 15 14 1 1 3 7 8 9 14 14 6 6 15 16
29 30 30 30 30 30 29 27 25 24 22 20 17 15 12 8 19 19 14 12 14 9 10 12 13 14 12 7 14 9 10 20 12 9 6 9 11 8 14 17 14 11 10 10 14
29 31 31 32 31 32 32 30 28 26 25 22 19 12 8 11 8 11 12 13 9 10 11 11 10 9 8 9 6 4 8 12 14 12 14 10 11 14 12 15 16 18 15 15 14
28 29 29 30 33 34 32 33 30 27 25 24 18 12 13 26 10 11 11 9 8 11 12 10 6 4 5 8 8 9 7 10 14 20 9 5 7 12 31 13 10 10 12 13 14
29 29 29 32 30 31 34 34 32 26 24 21 13 8 12 8 15 19 13 10 12 11 10 9 7 3 6 7 3 4 7 4 4 16 5 9 7 6 8 14 7 10 12 11 11
29 29 29 32 32 33 33 33 33 25 22 13 10 8 11 11 18 19 15 15 11 9 8 6 4 5 5 4 6 9 5 9 7 5 7 8 6 7 7 8 9 11 10 13 13
29 31 30 34 36 34 33 34 35 17 18 10 13 6 21 12 11 15 17 16 16 12 7 7 6 4 4 8 5 7 10 9 6 8 7 9 11 12 12 15 16 17 15 9 9
30 31 33 34 33 29 32 34 18 6 17 17 15 12 4 8 11 15 19 18 17 14 9 16 5 9 14 14 13 12 7 10 7 9 6 8 10 12 13 16 7 2 5 6 13
30 33 30 34 34 28 21 11 17 11 15 23 30 32 25 11 10 15 21 18 14 13 14 5 10 13 13 3 4 5 5 9 9 8 3 7 11 12 8 3 4 4 1 4 10
30 31 31 34 33 12 17 19 15 18 9 20 31 33 31 28 21 22 25 23 13 13 15 12 5 6 5 3 4 5 8 8 6 5 5 6 9 4 5 10 8 6 3 5 6
30 32 32 34 21 20 22 18 17 17 5 8 8 16 24 21 14 24 30 20 7 12 13 8 14 7 5 5 6 6 5 2 4 3 3 0 5 4 5 5 5 10 8 7 6
32 33 32 29 32 18 19 17 15 12 5 4 5 3 6 17 5 19 22 17 9 9 7 3 8 6 6 6 8 3 4 4 2 3 5 4 2 5 8 5 8 8 13 7 3
35 35 35 33 20 21 20 16 9 2 6 1 4 5 12 19 4 7 5 4 5 8 6 3 3 1 1 7 5 7 3 3 1 1 2 8 6 3 4 5 9 12 14 8 3
36 36 25 21 20 18 17 10 2 5 2 2 3 9 13 10 8 10 7 6 4 4 5 8 9 4 3 6 3 2 4 1 2 2 5 3 4 7 6 6 6 9 7 2 7
37 28 23 16 15 11 10 0 4 0 2 8 13 8 11 11 8 13 11 7 10 5 2 6 3 7 6 3 4 7 6 3 4 2 2 3 5 4 10 14 15 11 5 3 7
36 26 13 16 12 8 3 3 3 2 5 8 11 2 3 1 2 9 10 7 1 4 2 2 4 5 4 4 3 5 2 2 2 4 1 5 4 4 8 7 8 7 4 9 12
28 26 8 15 14 2 1 6 4 8 9 7 3 8 9 5 4 5 6 3 3 7 5 3 3 4 3 1 1 3 2 3 2 1 3 5 5 3 7 6 7 3 8 11 13
18 12 9 20 8 1 2 4 9 13 10 5 2 3 6 4 2 1 6 5 6 2 2 4 2 2 4 5 6 2 1 1 1 2 3 3 3 3 5 4 4 2 7 11 13
12 6 14 21 3 4 4 3 9 8 8 4 4 4 1 7 4 3 4 5 4 2 2 3 1 2 2 4 5 3 5 6 3 3 2 2 5 2 5 4 5 3 6 9 11
14 9 12 12 5 5 6 9 10 6 2 2 5 5 3 1 4 3 6 4 5 4 3 1 1 1 1 3 1 3 4 3 5 1 4 2 4 5 5 3 6 1 5 9 10
7 4 7 5 7 5 7 5 6 6 3 3 3 5 2 3 2 4 5 2 4 3 5 3 1 4 1 2 2 1 3 5 5 2 3 5 3 4 3 4 4 1 5 7 9
4 2 4 4 7 11 9 4 8 5 6 7 2 2 3 2 2 3 4 4 3 2 2 3 2 3 6 7 5 6 5 6 6 9 2 4 2 4 4 3 2 3 6 7 9
5 4 5 11 14 8 6 4 8 5 4 4 3 7 3 3 3 3 5 3 2 2 1 2 1 3 4 7 1 5 8 9 13 13 14 13 18 4 5 7 4 4 5 8 11
7 8 6 8 5 6 7 11 12 10 2 3 8 2 5 6 8 10 12 8 5 6 4 2 1 1 3 4 3 5 6 7 4 4 8 10 4 4 4 4 3 3 5 8 11
Wind_Direction
3 1 359 359 358 355 353 351 345 337 326 318 311 306 299 298 299 298 283 274 240 257 221 218 217 206 187 225 219 254 259 253 264 293 262 100 151 100 302 297 139 90 81 130 168
350 349 347 346 347 345 344 343 342 338 332 323 316 308 305 304 303 296 292 263 249 262 210 193 200 193 199 212 207 202 222 220 249 347 354 101 16 60 166 215 178 150 188 152 175
339 338 338 336 335 335 335 334 334 332 331 326 319 313 304 315 317 294 250 244 250 209 185 207 224 207 220 217 202 208 237 260 334 36 8 343 298 281 283 278 252 222 195 178 187
333 331 331 329 326 325 324 325 324 325 325 326 316 312 303 301 294 260 322 190 204 207 199 201 210 203 228 220 215 247 255 262 281 349 348 267 287 285 261 237 290 315 133 183 197
326 322 322 321 320 318 319 318 316 317 316 317 315 305 299 251 252 265 256 257 265 233 208 208 216 222 239 247 229 220 252 285 275 272 238 258 265 252 263 255 263 251 215 194 208
331 328 325 321 318 316 313 312 313 314 312 308 305 289 267 253 246 244 243 267 236 219 217 219 229 257 300 284 263 257 309 283 289 250 243 247 251 246 242 247 245 243 233 221 215
322 314 311 312 316 315 313 309 307 309 308 301 299 273 252 244 224 220 229 238 216 214 220 218 227 237 320 267 298 251 295 279 256 240 242 206 279 238 241 218 214 224 242 210 221
328 326 319 312 308 310 311 310 306 302 301 295 283 250 249 262 232 245 232 205 212 204 200 197 211 242 272 293 287 236 247 262 285 201 120 122 278 23 196 194 196 224 219 211 213
330 323 320 320 314 309 308 312 307 296 287 273 262 211 259 236 224 214 209 193 186 188 178 196 188 206 193 235 263 214 252 219 243 167 137 175 268 117 136 171 202 205 196 200 200
330 330 321 319 316 316 312 304 311 282 265 237 231 229 240 231 216 193 193 191 182 177 177 191 203 192 206 221 212 208 209 246 240 191 191 190 243 267 217 193 210 221 229 242 170
334 333 330 330 326 321 322 324 344 311 220 203 200 213 125 174 180 185 185 187 190 189 207 190 201 202 219 219 232 280 308 303 325 144 172 225 253 262 259 261 244 245 219 183 154
333 335 333 336 331 330 329 304 309 302 294 276 255 253 257 246 193 195 181 181 195 205 217 180 233 238 250 12 216 257 289 280 288 115 159 263 260 260 255 113 81 54 15 136 184
334 334 332 332 337 2 334 325 310 314 273 276 247 243 245 232 222 200 185 198 188 219 229 214 213 125 188 138 204 238 243 264 278 2 260 248 288 276 62 96 95 62 98 144 183
331 332 332 331 341 313 316 328 314 333 286 271 232 247 231 205 229 223 192 194 235 230 229 222 239 169 170 213 190 228 26 22 4 343 244 183 279 271 158 132 189 131 131 139 149
333 331 333 328 311 308 306 309 306 319 264 10 106 169 220 180 114 196 186 203 231 221 193 210 141 169 211 237 174 124 56 55 357 303 332 244 101 261 144 184 164 149 146 156 186
335 333 330 327 312 311 301 293 310 220 263 113 114 179 157 202 119 110 152 102 268 236 233 211 54 219 167 75 49 115 82 178 289 342 298 214 152 263 165 193 127 120 131 127 266
336 335 334 330 310 306 298 318 240 240 300 301 209 174 185 192 183 164 180 190 168 157 207 232 193 92 104 123 103 183 127 120 206 194 228 323 135 262 160 90 128 126 106 17 317
338 343 338 340 330 320 324 33 255 12 297 344 319 175 198 184 181 184 160 180 243 300 144 187 186 140 172 233 185 185 165 175 252 190 112 254 228 246 100 100 110 112 99 323 316
340 340 351 340 319 310 9 248 281 271 2 344 330 149 241 213 259 191 181 170 227 163 186 195 106 59 47 45 16 146 186 358 10 211 79 216 163 87 119 123 145 127 7 353 340
344 333 323 330 346 231 259 277 293 350 342 341 352 7 335 224 226 180 163 71 106 25 333 23 118 139 101 126 61 15 124 82 326 245 254 257 197 175 168 151 118 28 0 337 332
342 328 304 336 331 212 265 295 312 346 357 343 55 294 286 323 307 247 74 79 56 348 322 82 342 66 132 199 168 144 288 227 9 199 202 314 277 274 150 138 112 319 310 319 332
330 318 304 342 2 270 272 240 300 317 3 349 302 234 191 319 327 86 89 67 35 58 142 64 178 211 98 32 8 325 189 168 162 228 223 162 277 67 124 148 147 238 308 325 327
316 295 329 355 6 350 302 305 305 306 355 34 6 346 4 169 321 81 81 59 43 40 41 72 201 216 261 0 3 261 223 133 104 105 221 164 263 174 179 207 181 280 325 329 332
311 321 325 334 342 304 329 329 327 347 352 339 310 292 265 311 42 120 107 94 80 47 47 43 279 251 336 66 122 244 308 188 144 202 239 219 218 198 192 195 163 249 347 343 341
307 323 332 317 326 325 319 294 313 344 11 9 319 284 353 37 14 91 77 112 101 53 59 67 246 251 280 282 270 226 211 233 204 229 175 289 279 294 295 157 140 32 3 344 343
313 340 326 292 289 310 300 7 348 351 346 356 3 359 60 39 18 84 116 151 143 99 64 42 271 0 284 255 298 264 248 222 229 237 256 272 279 320 102 101 110 47 1 346 344
322 318 316 289 299 311 353 333 318 320 49 336 324 326 81 48 45 67 72 68 113 145 152 190 320 302 273 79 13 306 238 217 202 179 219 249 253 27 54 93 79 29 7 343 335
Height
1514 1511 1509 1504 1500 1496 1493 1489 1487 1485 1482 1479 1476 1475 1475 1473 1471 1471 1470 1468 1466 1466 1466 1466 1467 1469 1472 1473 1474 1475 1477 1476 1467 1458 1453 1455 1457 1461 1462 1463 1465 1466 1468 1471 1474
1514 1510 1508 1505 1500 1496 1493 1488 1484 1482 1478 1476 1474 1471 1470 1469 1466 1464 1463 1462 1462 1464 1464 1465 1467 1469 1470 1471 1473 1474 1474 1466 1459 1458 1456 1456 1459 1461 1463 1464 1465 1467 1470 1472 1473
1513 1509 1504 1502 1499 1494 1490 1487 1483 1480 1476 1473 1470 1468 1467 1465 1463 1459 1458 1459 1460 1462 1462 1463 1464 1468 1468 1466 1469 1468 1468 1460 1457 1457 1460 1459 1460 1462 1463 1464 1462 1465 1463 1467 1471
1508 1507 1502 1498 1496 1492 1487 1483 1481 1476 1473 1470 1468 1465 1465 1464 1465 1458 1458 1459 1461 1460 1461 1461 1463 1465 1466 1463 1462 1464 1460 1459 1458 1457 1460 1462 1462 1462 1461 1462 1461 1464 1464 1466 1468
1503 1501 1500 1495 1492 1488 1485 1480 1476 1474 1470 1467 1465 1463 1462 1463 1455 1454 1456 1458 1459 1459 1461 1459 1460 1461 1461 1457 1456 1455 1458 1458 1457 1458 1459 1461 1461 1461 1459 1459 1461 1463 1463 1465 1467
1503 1501 1494 1492 1486 1484 1479 1476 1473 1470 1468 1463 1462 1460 1459 1459 1450 1448 1451 1453 1455 1457 1459 1457 1457 1458 1456 1455 1455 1452 1455 1455 1455 1455 1457 1460 1458 1458 1453 1455 1457 1460 1460 1462 1465
1498 1497 1492 1489 1483 1479 1473 1471 1468 1466 1462 1460 1459 1456 1455 1446 1447 1446 1448 1451 1453 1456 1457 1455 1455 1456 1457 1455 1453 1453 1458 1455 1452 1451 1454 1455 1457 1450 1444 1452 1453 1456 1458 1460 1462
1496 1491 1487 1484 1479 1474 1469 1465 1461 1460 1457 1457 1455 1454 1444 1440 1440 1442 1446 1446 1451 1453 1453 1452 1453 1454 1456 1456 1454 1455 1455 1459 1441 1440 1452 1455 1456 1443 1440 1446 1450 1453 1455 1458 1460
1493 1489 1483 1478 1475 1468 1465 1458 1454 1452 1450 1451 1451 1450 1441 1432 1436 1435 1441 1442 1449 1452 1451 1452 1452 1452 1455 1459 1457 1450 1454 1448 1444 1440 1447 1454 1452 1444 1445 1448 1449 1450 1452 1454 1457
1492 1486 1480 1475 1469 1464 1459 1452 1446 1442 1442 1447 1446 1451 1434 1429 1431 1431 1438 1441 1445 1450 1451 1451 1451 1449 1454 1456 1458 1445 1448 1443 1438 1444 1444 1450 1451 1443 1444 1444 1445 1447 1449 1451 1455
1489 1483 1477 1472 1465 1460 1455 1448 1444 1440 1438 1433 1431 1428 1423 1427 1429 1431 1434 1440 1443 1446 1447 1445 1449 1447 1445 1442 1439 1436 1441 1442 1434 1437 1442 1445 1443 1440 1438 1439 1440 1443 1445 1448 1453
1487 1480 1474 1470 1463 1458 1455 1452 1451 1448 1437 1430 1428 1425 1424 1426 1427 1429 1433 1436 1437 1438 1441 1442 1443 1436 1432 1433 1432 1437 1442 1445 1438 1439 1442 1443 1441 1435 1433 1436 1440 1442 1445 1448 1451
1483 1478 1472 1467 1462 1458 1457 1453 1449 1446 1441 1421 1416 1414 1419 1424 1420 1422 1427 1429 1430 1434 1432 1431 1428 1426 1430 1434 1436 1439 1444 1444 1442 1439 1438 1440 1441 1434 1432 1435 1439 1443 1445 1447 1450
1481 1476 1470 1465 1462 1457 1454 1452 1449 1447 1440 1411 1403 1404 1409 1414 1416 1418 1420 1426 1427 1428 1427 1425 1425 1428 1432 1433 1434 1444 1439 1437 1441 1449 1463 1438 1467 1426 1430 1440 1440 1444 1447 1449 1450
1479 1473 1468 1465 1459 1455 1454 1451 1448 1449 1434 1397 1400 1404 1404 1412 1410 1411 1418 1422 1423 1424 1422 1425 1426 1430 1431 1430 1430 1439 1440 1442 1444 1454 1454 1445 1470 1429 1426 1437 1437 1442 1447 1449 1450
1475 1469 1464 1458 1456 1452 1450 1448 1448 1450 1424 1401 1404 1405 1405 1410 1411 1414 1418 1421 1425 1422 1421 1421 1426 1427 1429 1433 1435 1440 1443 1445 1446 1454 1474 1454 1451 1430 1435 1434 1434 1442 1446 1448 1450
1472 1465 1460 1456 1453 1450 1448 1449 1449 1436 1409 1402 1402 1405 1406 1409 1412 1416 1421 1423 1427 1433 1431 1423 1425 1430 1431 1437 1439 1441 1448 1469 1457 1461 1465 1443 1449 1437 1429 1432 1436 1442 1446 1448 1447
1468 1462 1458 1455 1452 1449 1448 1451 1439 1421 1423 1417 1412 1403 1406 1406 1413 1411 1418 1423 1422 1425 1426 1429 1435 1428 1431 1432 1436 1444 1447 1460 1451 1445 1439 1443 1460 1436 1430 1435 1439 1443 1446 1446 1445
1465 1460 1456 1454 1451 1449 1450 1445 1432 1424 1420 1421 1410 1408 1410 1417 1418 1414 1416 1421 1422 1422 1432 1433 1430 1430 1431 1432 1436 1439 1455 1443 1457 1445 1454 1432 1425 1432 1433 1438 1442 1444 1443 1441 1440
1465 1459 1456 1453 1450 1449 1451 1439 1428 1422 1420 1421 1423 1419 1415 1410 1412 1409 1411 1424 1428 1428 1429 1433 1436 1429 1435 1436 1438 1439 1439 1456 1461 1469 1460 1418 1412 1435 1434 1437 1439 1443 1441 1440 1439
1467 1461 1455 1453 1449 1449 1444 1437 1433 1424 1423 1423 1424 1425 1421 1415 1410 1413 1417 1427 1429 1432 1429 1436 1441 1439 1436 1438 1437 1447 1452 1445 1447 1452 1462 1449 1435 1436 1440 1440 1442 1442 1441 1439 1436
1468 1465 1456 1452 1452 1449 1441 1436 1431 1426 1425 1425 1422 1420 1424 1424 1415 1415 1420 1427 1432 1433 1434 1435 1436 1434 1432 1435 1435 1436 1435 1441 1452 1454 1456 1461 1446 1437 1438 1440 1439 1440 1438 1437 1436
1469 1463 1457 1455 1454 1449 1444 1437 1431 1429 1427 1428 1427 1425 1425 1424 1425 1414 1428 1436 1436 1437 1440 1439 1442 1444 1438 1443 1437 1438 1433 1436 1447 1452 1453 1451 1440 1434 1436 1437 1436 1437 1437 1437 1436
1471 1466 1460 1457 1456 1454 1447 1439 1435 1430 1429 1428 1427 1425 1423 1420 1421 1427 1433 1439 1440 1441 1441 1441 1442 1440 1440 1444 1442 1450 1443 1436 1446 1449 1453 1443 1432 1435 1434 1437 1436 1437 1436 1436 1434
1472 1469 1467 1461 1455 1453 1450 1445 1437 1434 1431 1430 1428 1428 1428 1435 1430 1430 1436 1439 1442 1443 1443 1446 1447 1442 1440 1438 1439 1437 1440 1440 1450 1441 1448 1440 1439 1431 1431 1432 1434 1435 1435 1435 1433
1473 1472 1468 1463 1457 1453 1447 1444 1440 1438 1438 1433 1435 1430 1430 1433 1432 1432 1435 1436 1439 1445 1446 1448 1446 1444 1445 1431 1434 1435 1432 1435 1434 1434 1434 1437 1432 1429 1431 1431 1433 1435 1435 1433 1431
1473 1471 1469 1462 1457 1453 1449 1448 1444 1439 1439 1437 1435 1435 1434 1437 1435 1435 1435 1437 1438 1445 1445 1447 1452 1443 1449 1431 1445 1448 1437 1434 1431 1431 1432 1433 1428 1429 1430 1431 1434 1434 1434 1432 1430